Location: Aranbee
(34.0885°N, 118.2342°W)
Time: 22:47:46
(UTC+00:00)

Tiros 1 - Pass Details

Date: 30 November 2020
Orbit: 630 x 663 km, 48.4° (Epoch: 19 January)

Event Time Altitude Azimuth Distance (km) Brightness Sun altitude
Rises 23:42:56 0° 276° (W) 2,989 11.4 10.0°
Reaches altitude 10° 23:45:49 10° 293° (WNW) 2,078 10.3 9.5°
Maximum altitude 23:49:25 21° 341° (NNW) 1,493 8.9 8.9°
Drops below altitude 10° 23:53:01 10° 30° (NNE) 2,074 9.2 8.2°
Sets 23:55:53 0° 47° (NE) 2,982 9.9 7.7°
